Location: Cañada de la Miga
(34.7595°N, 106.2317°W)
Time: 09:28:56
(UTC+00:00)

Transit 4A - Pass Details

Date: 11 December 2021
Orbit: 864 x 980 km, 66.8° (Epoch: 16 January)

Event Time Altitude Azimuth Distance (km) Brightness Sun altitude
Rises 00:18:52 0° 203° (SSW) 3,437 11.7 -5.4°
Reaches altitude 10° 00:21:18 10° 202° (SSW) 2,510 10.9 -5.9°
Maximum altitude 00:27:06 84° 115° (ESE) 894 7.8 -6.9°
Drops below altitude 10° 00:33:06 10° 28° (NNE) 2,589 9.8 -8.1°
Enters shadow 00:35:16 - 28° (NNE) 3,404 10.4 -8.5°
